[[{"header":{"parameterUnit":"m.s-1","parameterCategory":1,"la1":30.2991,"la2":30.254,"lo1":-89.0895,"lo2":-89.0444,"dy":0.0017,"dx":0.0017,"nx":28,"ny":28,"refTime":"2024-10-12T03:00:00:Z","depth":0,"parameterNumber":2,"parameterNumberName":"U-component_of_WINDS"},"data":[0,0,0,0,0,0,0,0,0,0,0,0,0,0,0,0,0,0,0,0,0,0,0,0,0,0,0,0,0,0,0,0,0,0,0,0,0,0,0,0,0,0,0,0,0,0,0,0,0,0,0,0,0,0,0,0,0,0,-0.6535,-0.6535,0,-0.6531,-0.6531,-0.6531,-0.6488,-0.6487,-0.6486,-0.6485,-0.6482,-0.6483,-0.6484,0,0,0,0,0,0,0,0,0,0,0,0,0,-0.6506,-0.6507,-0.6535,-0.6535,-0.6535,-0.6531,-0.6531,-0.6531,-0.6488,-0.6487,-0.6486,-0.6484,-0.6482,-0.6483,-0.6484,0,0,0,0,0,0,0,0,0,0,0,0,0,-0.6512,-0.6507,-0.6535,-0.6513,-0.6511,-0.6531,-0.6531,-0.6531,-0.6489,-0.6487,-0.6485,-0.6484,-0.6481,-0.6483,-0.6484,-0.6525,0,0,-0.6488,-0.6489,0,0,0,0,0,0,0,0,-0.6512,-0.6513,-0.6516,-0.6514,-0.6512,-0.6508,-0.652,-0.6529,-0.6489,-0.6497,-0.6485,-0.6483,-0.6492,-0.6492,-0.6495,-0.6525,-0.6525,-0.6488,-0.6489,-0.649,-0.649,0,0,0,0,0,0,0,-0.6512,-0.6513,-0.6533,-0.6516,-0.6514,-0.6504,-0.6503,-0.6521,-0.6504,-0.6496,-0.6493,-0.6493,-0.6491,-0.6494,-0.6495,-0.6525,-0.6488,-0.6489,-0.649,-0.6491,-0.6589,-0.6591,0,0,0,0,0,0,-0.6514,-0.6513,-0.6533,-0.6533,-0.6508,-0.6506,-0.6505,-0.6511,-0.6503,-0.6501,-0.6495,-0.6491,-0.6492,-0.6493,-0.6495,-0.6543,-0.649,-0.6491,-0.6492,-0.6587,-0.6589,-0.6591,0,0,0,0,0,0,-0.6514,-0.6516,-0.6533,-0.6522,-0.6524,-0.6508,-0.6516,-0.6512,-0.6515,-0.6502,-0.6499,-0.6501,-0.6491,-0.6493,-0.6518,-0.6542,-0.6492,-0.6493,-0.6585,-0.6588,-0.659,-0.664,0,0,0,0,0,0,-0.6513,-0.6516,-0.6531,-0.6523,-0.6525,-0.6557,-0.6517,-0.6513,-0.6518,-0.6513,-0.6507,-0.6505,-0.649,-0.6516,-0.6519,-0.6543,-0.6494,-0.6583,-0.6586,-0.6589,-0.6636,-0.6644,-0.6651,0,0,0,0,0,-0.6512,-0.6545,-0.6532,-0.6535,-0.6543,-0.6558,-0.6559,-0.6541,-0.652,-0.6535,-0.6527,-0.6505,-0.6539,-0.6519,-0.6522,-0.6547,-0.6581,-0.6585,-0.6589,-0.6633,-0.6642,-0.665,0,0,0,0,0,0,-0.6557,-0.6544,-0.6529,-0.6561,-0.6561,-0.6551,-0.6569,-0.6551,-0.6558,-0.6553,-0.6531,-0.653,-0.6559,-0.6555,-0.6533,-0.6587,-0.6556,-0.6561,-0.6588,-0.6597,-0.6605,-0.6605,-0.6495,0,0,0,0,0,-0.6571,-0.6584,-0.6571,-0.66,-0.6601,-0.6585,-0.6591,-0.6577,-0.6577,-0.6577,-0.657,-0.6571,-0.6582,-0.6589,-0.6598,-0.6635,-0.6634,-0.6654,-0.6661,-0.6667,-0.6672,-0.6693,-0.6702,-0.6604,-0.6604,-0.6604,0,0,-0.6599,-0.6593,-0.6603,-0.6609,-0.6608,-0.6622,-0.6586,-0.6602,-0.6613,-0.6579,-0.6603,-0.6598,-0.6598,-0.6629,-0.6643,-0.6627,-0.6699,-0.6672,-0.6677,-0.6679,-0.6698,-0.6707,-0.6715,-0.6607,-0.6607,-0.6606,0,0,-0.6657,-0.6654,-0.6678,-0.6678,-0.6676,-0.6665,-0.6671,-0.6664,-0.666,-0.6683,-0.6659,-0.6671,-0.669,-0.6691,-0.6694,-0.6755,-0.6735,-0.6758,-0.6797,-0.6817,-0.6825,-0.6832,-0.6854,-0.6863,-0.6763,-0.6763,-0.6763,0,-0.6693,-0.6713,-0.6693,-0.6712,-0.6716,-0.6686,-0.6711,-0.6711,-0.6713,-0.6717,-0.6699,-0.6723,-0.672,-0.6752,-0.6767,-0.677,-0.6777,-0.6759,-0.6825,-0.6832,-0.6838,-0.6859,-0.6868,-0.6766,-0.6765,-0.6765,-0.6765,0,-0.6757,-0.6772,-0.6792,-0.6795,-0.6801,-0.6823,-0.6806,-0.6815,-0.6801,-0.6793,-0.6818,-0.6814,-0.6822,-0.6828,-0.6815,-0.6859,-0.685,-0.6829,-0.6798,-0.685,-0.687,-0.6878,-0.677,-0.6769,-0.6768,-0.6767,0,0,-0.6844,-0.6836,-0.6843,-0.6845,-0.6841,-0.6852,-0.6873,-0.6882,-0.689,-0.6892,-0.691,-0.6927,-0.6909,-0.6912,-0.6898,-0.6916,-0.6966,-0.6893,-0.6893,-0.6908,-0.7016,-0.7032,-0.7042,-0.6953,-0.6954,-0.6956,-0.7017,0,-0.6902,-0.6937,-0.692,-0.6957,-0.6971,-0.6943,-0.6962,-0.6962,-0.6955,-0.6966,-0.6958,-0.6972,-0.6945,-0.6947,-0.6964,-0.6956,-0.6987,-0.6952,-0.697,-0.6971,-0.6972,-0.7052,-0.7069,-0.7127,-0.7024,-0.7025,-0.7026,0,-0.6973,-0.6979,-0.7018,-0.7013,-0.7018,-0.7035,-0.7042,-0.7053,-0.7053,-0.7047,-0.7051,-0.7033,-0.7055,-0.7023,-0.7053,-0.7029,-0.7036,-0.7033,-0.7035,-0.7037,-0.7002,-0.7057,-0.7145,-0.7154,-0.7038,-0.7037,-0.7036,0,-0.7034,-0.7051,-0.7077,-0.7079,-0.7073,-0.7086,-0.7084,-0.7083,-0.7089,-0.7095,-0.71,-0.7108,-0.7113,-0.7121,-0.7106,-0.7085,-0.7138,-0.7105,-0.7135,-0.7135,-0.7148,-0.7147,-0.7239,-0.715,-0.715,-0.715,-0.715,0,-0.7101,-0.7126,-0.7105,-0.7121,-0.7148,-0.7129,-0.7157,-0.7152,-0.7151,-0.7167,-0.7143,-0.7158,-0.7137,-0.7151,-0.714,-0.7167,-0.7169,-0.7165,-0.7162,-0.7168,-0.7168,-0.7172,-0.7168,-0.7152,-0.7152,-0.7152,-0.7151,0,-0.7173,-0.716,-0.7186,-0.7179,-0.7178,-0.7199,-0.7193,-0.7208,-0.72,-0.7219,-0.7223,-0.721,-0.7224,-0.7211,-0.7224,-0.7217,-0.7253,-0.7244,-0.7253,-0.7251,-0.7281,-0.7279,-0.7379,-0.7392,-0.7295,-0.7296,-0.7297,0,-0.7217,-0.7236,-0.7231,-0.7239,-0.7239,-0.7253,-0.726,-0.7241,-0.7249,-0.7252,-0.7267,-0.7279,-0.7288,-0.7313,-0.7305,-0.7316,-0.7307,-0.7342,-0.7309,-0.7314,-0.7309,-0.7309,-0.7311,-0.7349,-0.735,-0.7351,-0.7351,0,-0.7296,-0.7289,-0.7299,-0.7308,-0.7317,-0.7322,-0.7326,-0.7335,-0.7316,-0.7327,-0.7341,-0.7348,-0.7363,-0.7376,-0.7384,-0.7383,-0.7365,-0.7362,-0.7369,-0.7376,-0.7381,-0.738,-0.7273,-0.736,-0.7359,-0.7358,-0.7358,-0.7357,-0.7357,-0.7373,-0.7372,-0.7385,-0.7386,-0.739,-0.7404,-0.7398,-0.741,-0.742,-0.7409,-0.7427,-0.7428,-0.7437,-0.7438,-0.7453,-0.7439,-0.7449,-0.7452,-0.7455,-0.746,-0.7378,-0.7454,-0.7454,-0.7454,-0.7454,-0.7453,0,-0.7436,-0.7434,-0.7446,-0.7453,-0.7463,-0.7444,-0.7448,-0.7458,-0.7475,-0.7477,-0.7486,-0.7504,-0.7517,-0.751,-0.7522,-0.7535,-0.7527,-0.7539,-0.7538,-0.7538,-0.7472,-0.7465,-0.7545,-0.7545,-0.7545,-0.7545,-0.7545,-0.7545,-0.7478,-0.7505,-0.7497,-0.7525,-0.7523,-0.754,-0.7544,-0.7549,-0.7551,-0.7571,-0.7582,-0.7578,-0.7577,-0.7588,-0.76,-0.7598,-0.7603,-0.7619,-0.7614,-0.7552,-0.7543,-0.7534,-0.7527,-0.762,-0.762,-0.7679,-0.768,-0.768]},{"header":{"parameterUnit":"m.s-1","parameterCategory":1,"la1":30.2991,"la2":30.254,"lo1":-89.0895,"lo2":-89.0444,"dy":0.0017,"dx":0.0017,"nx":28,"ny":28,"refTime":"2024-10-12T03:00:00:Z","depth":0,"parameterNumber":3,"parameterNumberName":"V-component_of_WINDS"},"data":[0,0,0,0,0,0,0,0,0,0,0,0,0,0,0,0,0,0,0,0,0,0,0,0,0,0,0,0,0,0,0,0,0,0,0,0,0,0,0,0,0,0,0,0,0,0,0,0,0,0,0,0,0,0,0,0,0,0,0.4703,0.4703,0,0.4688,0.4688,0.4688,0.4705,0.4705,0.4706,0.4706,0.4691,0.469,0.4689,0,0,0,0,0,0,0,0,0,0,0,0,0,0.4745,0.4744,0.4703,0.4703,0.4703,0.4688,0.4688,0.4688,0.4704,0.4705,0.4706,0.4707,0.4691,0.469,0.4689,0,0,0,0,0,0,0,0,0,0,0,0,0,0.4728,0.4744,0.4703,0.4709,0.471,0.4688,0.4688,0.4688,0.4704,0.4705,0.4706,0.4707,0.4692,0.469,0.4689,0.466,0,0,0.4684,0.4683,0,0,0,0,0,0,0,0,0.4729,0.4726,0.4709,0.4709,0.4709,0.4699,0.4697,0.4678,0.4704,0.4706,0.4706,0.4708,0.4693,0.4691,0.4686,0.4659,0.4659,0.4684,0.4683,0.4682,0.4682,0,0,0,0,0,0,0,0.473,0.4727,0.4697,0.4708,0.4709,0.4712,0.4711,0.4693,0.4694,0.4706,0.4707,0.4705,0.4693,0.4688,0.4686,0.4658,0.4684,0.4683,0.4682,0.4681,0.4604,0.4603,0,0,0,0,0,0,0.4731,0.4728,0.4698,0.4697,0.4722,0.4711,0.4709,0.4701,0.4695,0.4695,0.4705,0.4706,0.469,0.4688,0.4686,0.4649,0.4682,0.4681,0.468,0.4605,0.4604,0.4603,0,0,0,0,0,0,0.4731,0.4728,0.4698,0.4713,0.4709,0.4709,0.47,0.4701,0.4695,0.4693,0.4694,0.4699,0.4691,0.4688,0.4666,0.4649,0.468,0.4679,0.4607,0.4605,0.4603,0.4578,0,0,0,0,0,0,0.4733,0.4728,0.4718,0.4712,0.4708,0.4679,0.4699,0.47,0.4693,0.4695,0.4688,0.4688,0.4691,0.4668,0.4664,0.4648,0.4678,0.4608,0.4606,0.4604,0.458,0.4576,0.4572,0,0,0,0,0,0.4734,0.4712,0.4717,0.4713,0.4695,0.4678,0.4676,0.468,0.4691,0.468,0.4679,0.4688,0.4652,0.4665,0.4661,0.4644,0.4609,0.4607,0.4604,0.4582,0.4577,0.4572,0,0,0,0,0,0,0.4715,0.4711,0.4717,0.4692,0.4685,0.4681,0.4667,0.4674,0.4664,0.4666,0.4671,0.467,0.4646,0.4643,0.4658,0.4615,0.4632,0.4629,0.4617,0.4612,0.4607,0.4608,0.4676,0,0,0,0,0,0.4708,0.4695,0.4692,0.467,0.4666,0.4667,0.466,0.4663,0.4656,0.4654,0.4651,0.4643,0.463,0.4621,0.4609,0.4581,0.4578,0.4567,0.4562,0.4559,0.4555,0.4537,0.4531,0.4594,0.4594,0.4595,0,0,0.4694,0.469,0.4681,0.4666,0.4661,0.4646,0.4665,0.4649,0.4637,0.4651,0.4629,0.4627,0.4619,0.4593,0.4581,0.459,0.4537,0.4556,0.4553,0.4551,0.4534,0.4528,0.4522,0.4593,0.4593,0.4593,0,0,0.4658,0.4655,0.4635,0.463,0.4622,0.4622,0.4617,0.4612,0.461,0.4588,0.4598,0.4584,0.4562,0.4555,0.4549,0.4509,0.4516,0.4505,0.4482,0.4464,0.4459,0.4455,0.4438,0.4432,0.4502,0.4502,0.4502,0,0.4641,0.4619,0.4624,0.4607,0.4599,0.4611,0.459,0.4585,0.4573,0.4567,0.4577,0.4548,0.4543,0.4514,0.4504,0.45,0.4493,0.4505,0.446,0.4455,0.4451,0.4435,0.4429,0.45,0.4501,0.4501,0.4501,0,0.4597,0.4581,0.4566,0.4553,0.4544,0.4526,0.4527,0.4517,0.4522,0.4521,0.4497,0.4492,0.4478,0.4472,0.4477,0.4443,0.4448,0.4459,0.4476,0.4444,0.4428,0.4423,0.4498,0.4499,0.4499,0.45,0,0,0.4549,0.4539,0.4533,0.4526,0.4518,0.4505,0.4486,0.4472,0.4462,0.4454,0.4436,0.4417,0.4426,0.4419,0.4422,0.4407,0.4373,0.442,0.442,0.4409,0.4332,0.4322,0.4315,0.4379,0.4377,0.4377,0.4332,0,0.4512,0.4478,0.4481,0.4449,0.4433,0.4444,0.4427,0.4419,0.4418,0.4404,0.4403,0.4387,0.4402,0.4397,0.4383,0.438,0.4357,0.4384,0.4361,0.436,0.436,0.4308,0.4298,0.4256,0.4326,0.4326,0.4325,0,0.4463,0.4452,0.4417,0.4409,0.4403,0.4387,0.4373,0.4361,0.4351,0.4351,0.4342,0.4348,0.4327,0.4347,0.4317,0.4335,0.4326,0.4323,0.4322,0.4318,0.4338,0.43,0.4243,0.4235,0.4316,0.4317,0.4318,0,0.4428,0.4405,0.438,0.4375,0.4365,0.4354,0.4349,0.4341,0.4331,0.432,0.4313,0.4299,0.4291,0.4279,0.4281,0.4295,0.425,0.427,0.4247,0.4247,0.4235,0.4236,0.4173,0.4234,0.4234,0.4234,0.4234,0,0.4385,0.4363,0.4364,0.4349,0.4324,0.4328,0.4303,0.43,0.4292,0.4276,0.4285,0.4269,0.4273,0.4258,0.4259,0.4232,0.423,0.4227,0.4227,0.4225,0.4225,0.4217,0.4219,0.4232,0.4233,0.4233,0.4233,0,0.4341,0.4341,0.4315,0.4307,0.4305,0.4286,0.428,0.4265,0.4264,0.4243,0.4238,0.4236,0.4218,0.4219,0.4198,0.4199,0.4166,0.4171,0.4168,0.4168,0.4144,0.4146,0.4073,0.4063,0.4133,0.4132,0.4131,0,0.4312,0.4295,0.4285,0.4274,0.4268,0.4252,0.4242,0.4245,0.4234,0.4221,0.4207,0.419,0.4175,0.4145,0.4142,0.4125,0.4128,0.4104,0.4126,0.4123,0.4124,0.4124,0.4121,0.4099,0.4098,0.4097,0.4097,0,0.4259,0.4259,0.4245,0.4229,0.4216,0.4205,0.4194,0.4184,0.4187,0.4173,0.4154,0.4143,0.4121,0.4103,0.4087,0.4081,0.4088,0.409,0.4084,0.408,0.4078,0.4075,0.4153,0.4091,0.4092,0.4092,0.4093,0.4093,0.4219,0.4204,0.4194,0.4176,0.4168,0.4157,0.4142,0.4138,0.4123,0.4104,0.4108,0.4086,0.4075,0.4054,0.4048,0.4029,0.4038,0.4029,0.4026,0.4023,0.4019,0.4083,0.4027,0.4027,0.4027,0.4028,0.4028,0,0.4165,0.4158,0.4142,0.4126,0.4111,0.412,0.4108,0.4095,0.4075,0.4065,0.4051,0.4027,0.4009,0.4004,0.3986,0.3972,0.3975,0.3967,0.3967,0.3965,0.4014,0.402,0.3965,0.3965,0.3965,0.3965,0.3965,0.3965,0.4134,0.4107,0.4106,0.4074,0.4069,0.4046,0.4038,0.4028,0.4019,0.3993,0.3977,0.3974,0.3965,0.3946,0.3929,0.3928,0.392,0.391,0.391,0.3955,0.3962,0.3967,0.3973,0.3909,0.3909,0.3861,0.3861,0.386]}]]